Total_Precipitation_Accumulation
0.49 0.28 0.34 0.32 0.26 0.27 0.29 0.35 0.40 0.41 0.36 0.34 0.33 0.39 0.45 0.41 0.40 0.44 0.56 0.70 0.87 1.09 1.32 1.49 1.59 1.73 1.82 1.68 1.57 1.63 1.60 1.71 1.89 1.85 1.89 1.99 2.07 2.02 2.18 2.23 2.19 1.93 1.82
0.54 0.32 0.36 0.33 0.30 0.30 0.30 0.33 0.38 0.38 0.37 0.34 0.32 0.38 0.49 0.45 0.44 0.47 0.62 0.70 0.81 1.00 1.13 1.30 1.47 1.50 1.52 1.48 1.44 1.53 1.58 1.66 1.92 2.17 2.31 2.33 2.36 2.26 2.32 2.48 2.56 2.33 2.02
0.68 0.49 0.38 0.35 0.31 0.31 0.31 0.34 0.35 0.36 0.38 0.37 0.32 0.31 0.37 0.38 0.41 0.51 0.56 0.65 0.79 0.94 1.06 1.19 1.36 1.30 1.25 1.23 1.26 1.34 1.39 1.54 1.90 2.39 2.80 2.89 2.68 2.64 2.49 2.38 2.39 2.15 2.18
0.63 0.61 0.46 0.40 0.35 0.30 0.31 0.36 0.39 0.38 0.37 0.35 0.32 0.30 0.34 0.38 0.43 0.52 0.57 0.64 0.83 1.00 1.10 1.10 1.20 1.29 1.25 1.20 1.14 1.14 1.19 1.42 1.83 2.29 2.90 3.00 2.98 3.21 2.70 2.23 2.11 2.01 2.18
0.56 0.58 0.57 0.47 0.41 0.36 0.34 0.38 0.41 0.42 0.40 0.40 0.40 0.39 0.42 0.45 0.46 0.54 0.64 0.70 0.82 0.97 1.09 1.10 1.11 1.28 1.23 1.14 1.07 1.09 1.18 1.47 1.88 2.16 2.64 3.26 3.65 3.56 3.00 2.46 2.20 2.03 2.11
0.60 0.61 0.60 0.54 0.53 0.52 0.48 0.47 0.47 0.45 0.44 0.46 0.48 0.50 0.51 0.58 0.62 0.65 0.75 0.82 0.90 1.01 1.08 1.10 1.16 1.24 1.11 1.04 1.04 1.12 1.25 1.51 1.69 1.94 2.54 3.31 3.25 3.15 2.96 2.77 2.44 2.22 2.11
0.63 0.78 0.65 0.61 0.62 0.64 0.64 0.59 0.58 0.54 0.54 0.55 0.57 0.56 0.58 0.68 0.77 0.78 0.86 0.93 1.04 1.17 1.20 1.17 1.12 1.05 0.93 0.96 1.07 1.14 1.24 1.44 1.58 2.13 2.71 3.09 2.92 2.80 2.80 2.73 2.52 2.32 2.15
0.64 0.68 0.68 0.65 0.67 0.69 0.75 0.81 0.79 0.72 0.69 0.68 0.69 0.66 0.62 0.61 0.69 0.85 0.96 1.04 1.16 1.25 1.24 1.16 1.12 1.02 0.96 1.05 1.13 1.20 1.26 1.23 1.20 1.83 2.49 2.66 2.37 2.53 2.75 2.59 2.46 2.29 2.14
0.76 0.77 0.85 0.90 0.91 0.96 1.03 1.06 1.02 0.94 0.89 0.82 0.77 0.71 0.66 0.65 0.70 0.82 1.03 1.15 1.22 1.25 1.22 1.15 1.12 1.10 1.10 1.15 1.12 1.12 1.16 1.22 1.22 1.58 2.17 2.64 2.12 2.35 2.73 2.63 2.44 2.32 2.17
1.27 1.27 1.30 1.38 1.33 1.26 1.20 1.19 1.14 1.07 1.02 0.94 0.83 0.78 0.78 0.82 0.89 1.01 1.03 1.14 1.24 1.33 1.26 1.22 1.22 1.16 1.16 1.14 1.10 1.17 1.32 1.22 1.16 1.48 2.04 2.18 2.03 2.49 2.86 2.70 2.49 2.38 2.16
1.95 1.92 1.79 1.75 1.62 1.61 1.50 1.29 1.35 1.27 1.23 1.16 1.07 1.00 1.05 1.17 1.36 1.41 1.24 1.34 1.42 1.50 1.48 1.50 1.48 1.38 1.30 1.21 1.20 1.24 1.31 1.18 1.26 1.59 2.17 2.26 2.44 2.79 3.10 3.00 2.73 2.50 2.31
2.46 2.36 2.09 2.16 2.09 1.92 1.77 1.76 1.76 1.60 1.61 1.61 1.63 1.43 1.54 1.94 2.06 1.73 1.82 1.85 1.96 1.93 1.74 1.73 1.70 1.52 1.36 1.29 1.42 1.46 1.17 1.10 1.28 1.54 1.94 2.29 2.60 2.98 3.18 3.08 2.83 2.61 2.50
2.48 2.31 2.42 2.60 2.45 2.46 2.59 2.56 2.39 2.29 2.30 2.17 2.23 2.08 2.19 2.24 2.14 2.12 2.26 2.29 2.36 2.26 2.17 2.19 1.97 1.67 1.61 1.63 1.59 1.46 1.33 1.31 1.34 1.53 1.85 2.19 2.50 2.96 3.24 3.11 2.87 2.75 2.71
2.74 2.50 2.59 2.62 2.63 2.79 2.89 3.00 3.07 2.91 2.89 2.75 2.69 2.52 2.64 2.75 2.79 2.71 2.87 2.95 3.04 2.98 2.90 2.73 2.45 2.32 2.07 1.91 1.77 1.76 1.64 1.54 1.67 1.88 2.04 2.08 2.28 2.69 3.06 3.16 2.99 2.88 2.84
3.34 3.09 2.96 3.08 2.96 2.94 3.20 3.35 3.20 3.34 3.29 3.41 3.40 3.07 3.09 3.11 3.16 3.37 3.40 3.63 3.57 3.54 3.37 3.13 2.73 2.58 2.44 2.19 1.97 1.95 1.93 1.86 1.92 1.99 2.12 2.17 2.21 2.48 2.93 3.21 3.20 3.12 3.19
3.80 3.64 3.38 3.30 3.33 3.25 3.45 3.71 3.70 3.56 3.65 3.69 3.85 3.65 3.55 3.56 3.65 3.73 3.76 3.96 3.80 3.54 3.48 3.29 2.94 2.76 2.58 2.43 2.13 1.96 1.98 2.19 2.13 2.05 2.18 2.23 2.20 2.28 2.66 3.15 3.46 3.62 3.72
4.00 3.78 3.74 3.55 3.82 3.94 4.17 4.17 4.22 4.26 4.29 4.21 4.16 4.20 4.09 4.13 4.21 4.06 4.19 4.32 4.12 3.79 3.74 3.64 3.48 3.11 2.88 2.81 2.61 2.34 2.21 2.29 2.37 2.47 2.48 2.48 2.49 2.46 2.65 2.98 3.31 3.57 3.77
3.93 3.95 4.09 3.86 3.98 4.28 4.33 4.35 4.57 4.84 4.93 4.77 4.56 4.55 4.47 4.59 4.71 4.75 4.57 4.42 4.26 4.02 3.95 4.08 3.81 3.43 3.31 3.32 3.12 2.73 2.42 2.51 2.60 2.57 2.58 2.63 2.80 2.71 2.74 2.76 2.93 3.21 3.49
3.87 3.87 4.10 4.29 4.18 4.45 4.62 4.70 4.92 5.15 5.33 5.19 4.98 4.84 4.90 4.90 4.84 4.98 4.93 4.79 4.58 4.42 4.34 4.01 3.92 3.76 3.69 3.60 3.15 2.92 2.57 2.47 2.57 2.50 2.56 2.63 2.86 2.96 2.95 2.71 2.82 3.16 3.38
3.92 3.99 4.11 4.49 4.55 4.88 5.05 4.92 5.07 5.22 5.29 5.25 5.20 5.14 5.33 5.42 5.23 5.27 5.12 5.00 4.91 4.83 4.68 4.44 4.33 4.20 3.90 3.74 3.26 3.00 2.72 2.47 2.45 2.46 2.41 2.49 2.57 2.61 2.70 2.73 2.78 2.73 2.99
4.17 4.28 4.26 4.43 4.75 4.94 5.11 5.16 5.49 5.50 5.37 5.57 5.78 5.71 5.87 5.94 5.68 5.60 5.47 5.34 5.10 4.91 4.78 4.64 4.46 4.26 3.91 3.77 3.60 3.27 2.79 2.41 2.37 2.34 2.25 2.31 2.34 2.31 2.43 2.53 2.74 2.72 2.61
4.23 4.36 4.58 4.75 4.83 5.00 5.50 5.94 6.32 6.64 6.60 6.53 6.67 6.68 6.48 6.38 6.28 6.03 6.05 5.76 5.38 5.13 4.83 4.58 4.38 4.07 3.70 3.68 3.70 3.79 3.31 2.85 2.26 1.92 1.96 1.99 1.98 2.01 2.12 2.24 2.38 2.50 2.44
4.00 4.23 4.46 4.81 5.21 5.77 6.45 6.91 7.18 7.53 7.66 7.39 7.10 6.90 6.64 6.46 6.30 5.95 5.76 5.65 5.37 4.85 4.58 4.41 4.17 3.97 3.75 3.60 3.52 3.77 3.54 3.13 2.59 2.19 1.91 1.75 1.79 1.92 1.98 2.10 2.16 2.18 2.14
3.58 3.95 4.37 4.81 5.46 6.39 7.10 7.55 7.93 8.08 8.08 7.88 7.56 7.11 6.66 6.26 5.86 5.52 5.32 5.04 4.79 4.45 4.25 3.94 3.83 3.83 3.80 3.58 3.46 3.23 2.99 2.83 2.85 2.60 2.22 1.96 1.88 1.89 1.86 1.83 1.87 1.97 2.02
3.39 3.75 4.20 4.67 5.43 6.19 6.83 7.45 7.97 8.15 8.10 7.81 7.33 6.75 6.22 5.74 5.25 4.79 4.53 4.28 4.02 3.78 3.56 3.33 3.30 3.38 3.42 3.36 3.30 3.20 3.06 2.94 2.76 2.63 2.50 2.40 2.24 2.05 1.92 1.84 1.82 1.82 1.82
3.04 3.40 3.85 4.29 4.89 5.55 6.03 6.63 7.08 7.28 7.20 6.74 6.15 5.54 5.16 4.89 4.55 4.18 3.83 3.57 3.26 3.04 2.88 2.80 2.73 2.73 2.84 2.87 2.93 2.93 2.93 3.01 2.91 2.87 2.68 2.53 2.46 2.26 2.08 1.94 1.86 1.82 1.77